Torna al catalogo

TURKSAT 3U

AttivoComunicazioniSSO
NORAD 39152·PAYLOAD·🇹🇷 Turkey

Lanciato Apr 26, 2013 da Jiuquan Satellite Launch Center

Loading…

Prossimi Passaggi (prossime 24 ore)

TLE

AggiornatoSource: Space-Track

Epoca: Sep 13, 2026, 04:45 UTC

1 39152U 13018C   26256.19848204  .00002816  00000-0  25038-3 0  9998
2 39152  97.7914 346.6763 0012559 159.7535 200.4187 14.96869810724255

Traccia TURKSAT 3U in tempo reale con AllMySat

Download on the App Store